Regional Weather Roundup
Issued by NWS

Home | Current Version | Previous Version | Text Only | Print | Product List | Glossary Off
Versions: 1 2 3 4 5 6 7 8 9 10 11 12 13 14 15 16 17 18 19 20 21 22 23 24 25 26 27 28 29 30 31 32 33 34 35 36 37 38 39 40 41 42 43 44 45 46 47 48 49 50

996
ASUS43 KIND 272259
RWRIN

WEATHER ROUNDUP FOR INDIANA
NATIONAL WEATHER SERVICE INDIANAPOLIS IN
700 PM EDT SAT AUG 27 2016

NOTE: "FAIR" INDICATES FEW OR NO CLOUDS BELOW 12,000 FEET WITH NO
SIGNIFICANT WEATHER AND/OR OBSTRUCTIONS TO VISIBILITY.

* - STATION DOES NOT REPORT WEATHER SUCH AS PRECIPITATION OR FOG.

+ - STATION NOT QUALITY CONTROLLED BY THE NATIONAL WEATHER SERVICE.
    USE DATA WITH CAUTION...ESPECIALLY DEWPOINT AND RELATIVE
    HUMIDITY OBSERVATIONS.

INZ001>003-010>013-019-020-280000-
NORTHWEST INDIANA

CITY           SKY/WX    TMP DP  RH WIND       PRES   REMARKS
GARY /AIRPORT/ MOSUNNY   86  70  58 SW14      30.02S
KNOX *+        MOSUNNY   81  52  36 SW6       30.05R
MONTICELLO +   SUNNY     84  69  61 S6        30.05S

$$

LMZ046-743>745-280000-
SOUTHERN LAKE MICHIGAN

STATION/POSITION TIME  TEMP    WIND        PRES    WAVE
                       AIR SEA DIR/SP/G            HT
                 (UTC) (F)     (DEG/KT/KT) (MB)    (FT)
BURNS HARBOR     2200   84     230/ 12/ 15 1016.6F
MICHIGAN CITY    2200   82     180/  9/ 10   N/A
5NW MICH CITY    2200   81 76  220/  6/  8   N/A     1

$$

INZ004-005-014>016-021>024-280000-
NORTH CENTRAL INDIANA

CITY           SKY/WX    TMP DP  RH WIND       PRES   REMARKS
GOSHEN         SUNNY     81  70  69 S7        30.07R
PERU/GRISSOM   SUNNY     84  73  69 SW7       30.07R
SOUTH BEND     MOSUNNY   80  73  79 S8        30.05S

$$

INZ006>009-017-018-025>027-280000-
NORTHEAST INDIANA

CITY           SKY/WX    TMP DP  RH WIND       PRES   REMARKS
ANGOLA *+      SUNNY     81  73  78 S7        30.08S
FORT WAYNE     MOSUNNY   80  70  71 S9        30.09R

$$

INZ028-029-035-036-043>045-051>053-280000-
WEST CENTRAL INDIANA

CITY           SKY/WX    TMP DP  RH WIND       PRES   REMARKS
CRAWFORDSVL +  SUNNY     81  73  75 SW5       30.08R
LAFAYETTE      MOSUNNY   84  73  69 SW5       30.05R
TERRE HAUTE    SUNNY     86  69  56 S6        30.07R

$$

INZ030>032-037>040-046>048-054>057-064-065-280000-
CENTRAL INDIANA

CITY           SKY/WX    TMP DP  RH WIND       PRES   REMARKS
COLUMBUS       SUNNY     82  77  83 SE5       30.08
INDIANAPOLIS   MOSUNNY   83  71  67 SW6       30.08R
-EAGLE CREEK   SUNNY     83  71  67 S5        30.08R
KOKOMO *+      MOSUNNY   82  73  74 S6        30.08R
MT COMFORT *+  SUNNY     81  73  78 S3        30.10R
SHELBYVILLE    SUNNY     84  72  67 SW6       30.08R

$$

INZ033-034-041-042-049-050-058-059-280000-
EAST CENTRAL INDIANA

CITY           SKY/WX    TMP DP  RH WIND       PRES   REMARKS
MUNCIE         SUNNY     82  70  66 SW3       30.10R

$$

INZ060-061-067>069-081>083-085>088-280000-
SOUTHWEST INDIANA

CITY           SKY/WX    TMP DP  RH WIND       PRES   REMARKS
EVANSVILLE     CLOUDY    88  73  61 S3        30.05S HX  95
HUNTINGBURG *+ CLOUDY    88  72  58 S3        30.06S

$$

INZ062-063-066-070>080-084-089>092-280000-
SOUTH CENTRAL AND SOUTHEAST INDIANA

CITY           SKY/WX    TMP DP  RH WIND       PRES   REMARKS
BLOOMINGTON    MOSUNNY   83  73  72 S3        30.08R
MADISON *+     CLOUDY    81  73  78 E3        30.11S

$$





USA.gov is the U.S. government's official web portal to all federal, state and local government web resources and services.